New Orleans, LA

8:39 PM CDT on May 26, 2018 (GMT -0500)
New Orleans International

Weather History for KMSY - January, 2013

Change the Weather History Date:

Wednesday, January 2, 2013

  Actual Average Record
Temperature  
Mean Temperature 48 °F -  
Max Temperature 53 °F 60 °F 80 °F (1966)
Min Temperature 44 °F 42 °F 25 °F (1970)
Degree Days  
Heating Degree Days 16    
Moisture  
Dew Point 43 °F    
Average Humidity 84    
Maximum Humidity 90    
Minimum Humidity 77    
Precipitation  
Precipitation 0.04 in - - ()
Sea Level Pressure  
Sea Level Pressure 30.16 in    
Wind  
Wind Speed 12 mph (North)    
Max Wind Speed 15 mph    
Max Gust Speed 21 mph    
Visibility 9 miles    
Events Rain    
Averages and records for this station are not official NWS values.
T = Trace of Precipitation, MM = Missing Value Source: NWS Daily Summary

Daily Weather History Graph

Daily Weather History Graph

Search for Another Location

Airport or City:

Astronomy

Jan. 02, 2013 Rise Set
Actual Time 6:57 AM CST 5:13 PM CST
Civil Twilight 6:31 AM CST 5:39 PM CST
Nautical Twilight 6:01 AM CST 6:09 PM CST
Astronomical Twilight 5:32 AM CST 6:38 PM CST
Moon 10:20 PM CST (1/2) 10:02 AM CST (1/2)
Length of Visible Light 11h 08m
Length of Day
10h 16m
Waning Gibbous, 75% of the Moon is Illuminated
Jan 2
Waning Gibbous
Jan 4
Last Quarter
Jan 11
New
Jan 18
First Quarter
Jan 26
Full

Hourly Weather History & Observations

Time (CST) Temp. Windchill Dew Point Humidity Pressure Visibility Wind Dir Wind Speed Gust Speed Precip Events Conditions
12:34 AM 51.8 °F - 48.2 °F 88% 30.08 in 10.0 mi North 12.7 mph 20.7 mph 0.00 in   Overcast
12:53 AM 52.0 °F - 48.0 °F 86% 30.08 in 10.0 mi North 15.0 mph 19.6 mph 0.00 in   Overcast
1:53 AM 52.0 °F - 48.0 °F 86% 30.09 in 10.0 mi North 11.5 mph - 0.00 in   Overcast
2:53 AM 50.0 °F - 46.9 °F 89% 30.08 in 10.0 mi North 13.8 mph 20.7 mph N/A   Overcast
3:53 AM 50.0 °F - 46.0 °F 86% 30.09 in 10.0 mi North 12.7 mph - N/A   Overcast
4:53 AM 48.9 °F - 46.0 °F 90% 30.10 in 10.0 mi North 10.4 mph - N/A   Overcast
5:53 AM 48.2 °F - 44.6 °F 87% 30.12 in 10.0 mi North 11.5 mph - N/A   Overcast
6:53 AM 46.9 °F - 43.0 °F 86% 30.14 in 10.0 mi North 13.8 mph - N/A   Overcast
7:53 AM 46.9 °F - 43.0 °F 86% 30.18 in 9.0 mi North 9.2 mph 19.6 mph N/A   Overcast
8:53 AM 46.9 °F - 43.0 °F 86% 30.19 in 8.0 mi North 9.2 mph - 0.00 in Rain Light Rain
9:53 AM 46.9 °F - 42.1 °F 83% 30.21 in 9.0 mi North 12.7 mph - 0.00 in   Overcast
10:53 AM 46.9 °F - 42.1 °F 83% 30.19 in 9.0 mi North 13.8 mph - 0.00 in Rain Light Rain
11:53 AM 46.9 °F - 42.1 °F 83% 30.17 in 9.0 mi North 10.4 mph - 0.00 in   Overcast
12:53 PM 48.9 °F - 42.1 °F 77% 30.14 in 10.0 mi North 10.4 mph - N/A   Overcast
1:53 PM 48.9 °F - 42.1 °F 77% 30.13 in 10.0 mi North 12.7 mph - N/A   Overcast
2:50 PM 48.2 °F - 42.8 °F 82% 30.15 in 10.0 mi NNW 11.5 mph - 0.00 in Rain Light Rain
2:53 PM 48.9 °F - 42.1 °F 77% 30.17 in 10.0 mi NNW 12.7 mph - 0.00 in Rain Light Rain
3:53 PM 48.0 °F - 43.0 °F 83% 30.18 in 9.0 mi NNW 9.2 mph - 0.00 in Rain Light Rain
4:53 PM 46.9 °F - 42.1 °F 83% 30.18 in 10.0 mi NNW 10.4 mph - 0.00 in   Overcast
5:04 PM 46.4 °F 41.5 °F 42.8 °F 87% 30.17 in 10.0 mi North 10.4 mph - N/A   Overcast
5:53 PM 46.9 °F - 42.1 °F 83% 30.18 in 10.0 mi North 13.8 mph - N/A   Overcast
6:53 PM 46.9 °F - 42.1 °F 83% 30.21 in 10.0 mi North 9.2 mph - 0.00 in Rain Light Rain
7:53 PM 46.0 °F 41.4 °F 42.1 °F 86% 30.21 in 9.0 mi North 9.2 mph - 0.00 in Rain Light Rain
8:53 PM 46.0 °F 39.9 °F 42.1 °F 86% 30.21 in 9.0 mi North 13.8 mph - 0.01 in Rain Light Rain
9:53 PM 45.0 °F 39.7 °F 42.1 °F 90% 30.23 in 9.0 mi North 10.4 mph - 0.00 in   Overcast
10:53 PM 44.1 °F 40.1 °F 41.0 °F 89% 30.24 in 7.0 mi North 6.9 mph - 0.01 in Rain Light Rain
11:53 PM 44.1 °F 39.5 °F 41.0 °F 89% 30.25 in 7.0 mi North 8.1 mph - 0.02 in Rain Light Rain